Tracking 19149 objects as of 20-Apr-2018
HD Live streaming from Space Station
objects crossing your sky now

AMOS 3

Track AMOS 3 now!
AMOS 3 is classified as:


NORAD ID: 32794
Int'l Code: 2008-022A
Perigee: 35,784.1 km
Apogee: 35,804.1 km
Inclination: 0.0 °
Period: 1,436.1 minutes
Semi major axis: 42165 km
RCS: 30.7763 m2 (large)
Launch date: April 28, 2008
Source: Israel (ISRA)
Launch site: TYURATAM MISSILE AND SPACE COMPLEX (TTMTR)

AMOS-3 is to be placed in the same orbital location as AMOS-1 and AMOS-2, eventually replacing AMOS-1 with enhanced capabilities, including broadband coverage. AMOS-1 has been in orbit since 1996.
aabbcc
Your satellite tracking list
Your tracking list is empty




NASA's NSSDC Master Catalog

Two Line Element Set (TLE):
1 32794U 08022A   18109.82010516 -.00000046 +00000-0 +00000-0 0  9990
2 32794 000.0180 219.6790 0002374 131.6268 147.6531 01.00270627052507
Source of the keplerian elements: AFSPC